Location: Barrow Cemetery
(35.4640°N, 90.0870°W)
Time: 00:28:13
(UTC+00:00)

BlueWalker 3 - Visible Passes

Search period start: 21 June 2024 00:00
Search period end: 01 July 2024 00:00
Orbit: 480 x 494 km, 53.2° (Epoch: 20 June)

Date Brightness Start Highest point End Pass type
(mag) Time Alt. Az. Time Alt. Az. Time Alt. Az.
21 Jun 5.0 03:14:17 10° WNW 03:16:48 17° NNW 03:19:20 10° NNE visible
21 Jun 4.6 08:12:59 10° NNW 08:15:49 20° NNE 08:18:39 10° E visible
21 Jun 2.0 09:50:33 10° WNW 09:54:09 47° SW 09:57:44 10° SSE visible
22 Jun 5.0 02:48:27 10° WNW 02:51:04 18° NNW 02:53:42 10° NNE visible
22 Jun 4.7 07:47:21 10° NNW 07:50:06 19° NNE 07:52:49 10° E visible
22 Jun 1.9 09:24:49 10° NW 09:28:28 52° SW 09:32:06 10° SSE visible
23 Jun 4.9 02:22:36 10° W 02:25:20 19° NNW 02:28:04 10° NNE visible
23 Jun 4.7 07:21:43 10° NNW 07:24:21 18° NNE 07:26:59 10° ENE visible
23 Jun 1.8 08:59:05 10° NW 09:02:45 57° SW 09:06:26 10° SSE visible
24 Jun 4.8 01:56:45 10° W 01:59:35 20° NNW 02:02:26 10° NNE visible
24 Jun 4.7 06:56:05 10° NNW 06:58:37 17° NNE 07:00:38 12° ENE visible
24 Jun 3.6 08:33:21 10° NW 08:34:43 21° WNW 08:34:43 21° WNW visible
25 Jun 4.7 06:30:26 10° N 06:32:51 16° NNE 06:33:16 16° NE visible
26 Jun 4.7 06:04:47 10° N 06:07:02 15° NNE 06:07:02 15° NNE visible
27 Jun 4.8 05:39:09 10° N 05:41:13 14° NNE 05:41:13 14° NNE visible
28 Jun 4.7 05:13:31 10° N 05:15:30 14° NNE 05:15:38 14° NNE visible
29 Jun 4.7 04:47:52 10° N 04:49:43 13° NNE 04:50:11 13° NE visible
30 Jun 4.6 04:22:15 10° N 04:23:55 12° NNE 04:24:49 12° NE visible
30 Jun 4.9 05:58:53 10° NW 05:59:07 12° NW 05:59:07 12° NW visible
